Погода в Ингульце

Украина / Днепропетровская область     47°40′44″N   33°10′13″E
темп.,
°C
ветер,
м/с
пор.,
м/с
влажн.,
%
обл.,
%
осадки,
мм/ч
давл.,
гПа
погр.,
м
19 сентября, вс
вс1900:00+16ююз149299 1.1 1007216
03:00+16сз368875 1.2 1008223
06:00+14сз239182 0.0 100945
09:00+18зсз337080 0.0 1009411
12:00+21з34486 0.0 10091241
15:00+23зюз563973 0.0 10082256
18:00+21зюз5643100 0.0 10081221
21:00+17зюз335978 0.0 100856
20 сентября, пн
пн2000:00+15сз587224 0.0 1009370
03:00+12зсз586945 0.0 1010393
06:00+10з487243 0.0 1010420
09:00+12з695930 0.0 1011869
12:00+14з785383 0.0 10111354
15:00+15з7852100 0.0 10121444
18:00+14зсз6855100 0.0 10121420
21:00+13з376369 0.0 1014655
21 сентября, вт
вт2100:00+10з48755 0.0 1014205
03:00+10з4872100 0.0 1015654
06:00+7з377914 0.0 1015279
09:00+10з685450 0.0 10161241
12:00+11зсз784996 0.0 10151555
15:00+12зсз895388 0.0 10151402
18:00+8зсз71075100 0.0 10171033
21:00+8зсз61074100 0.1 10181044
22 сентября, ср
ср2200:00+8зсз61073100 0.0 10171145
03:00+8зсз6872100 0.1 10171151
06:00+8зсз5775100 0.1 10171140
09:00+8зсз5775100 0.1 10171045
12:00+8зсз5773100 0.1 10161050
15:00+9зсз5667100 0.2 10161257
18:00+8сз5669100 0.1 1016919
21:00+7зсз4576100 0.1 10161021
23 сентября, чт
чт2300:00+7сз3483100 0.0 1015837
03:00+7сз3479100 0.1 1014493
06:00+7сз238097 0.0 1014301
09:00+8сз2373100 0.1 1014571
12:00+9сз226484 0.2 1013913
15:00+9сз4467100 0.4 1013847
18:00+9сз436195 0.1 1014908
21:00+6сз357235 0.1 1014118